Time,TemperatureF,DewpointF,PressureIn,WindDirection,WindDirectionDegrees,WindSpeedMPH,WindSpeedGustMPH,Humidity,HourlyPrecipIn,Conditions,Clouds,dailyrainin,SoftwareType,DateUTC
2013-05-29 00:00:00,47.3,44.2,29.66,North,360,9.0,27.0,89,0.00,,,0.03,Wunderground v.1.15,2013-05-28 23:00:00,
2013-05-29 00:10:00,47.3,44.2,29.66,North,360,10.0,13.0,89,0.00,,,0.00,Wunderground v.1.15,2013-05-28 23:10:00,
2013-05-29 00:15:00,47.2,44.1,29.66,North,360,11.0,15.0,89,0.00,,,0.00,Wunderground v.1.15,2013-05-28 23:15:00,
2013-05-29 00:25:00,47.1,44.0,29.66,North,360,10.0,16.0,89,0.00,,,0.00,Wunderground v.1.15,2013-05-28 23:25:00,
2013-05-29 00:30:00,47.0,43.9,29.66,North,360,11.0,11.0,89,0.00,,,0.00,Wunderground v.1.15,2013-05-28 23:30:00,
2013-05-29 00:40:00,46.9,43.8,29.66,North,360,9.0,11.0,89,0.00,,,0.00,Wunderground v.1.15,2013-05-28 23:40:00,
2013-05-29 00:45:00,46.9,44.1,29.66,North,360,10.0,11.0,90,0.00,,,0.00,Wunderground v.1.15,2013-05-28 23:45:00,
2013-05-29 00:50:00,46.8,44.0,29.66,North,360,11.0,11.0,90,0.00,,,0.00,Wunderground v.1.15,2013-05-28 23:50:00,
2013-05-29 00:55:00,46.7,43.9,29.66,North,360,10.0,11.0,90,0.00,,,0.00,Wunderground v.1.15,2013-05-28 23:55:00,
2013-05-29 01:05:00,46.7,43.9,29.66,North,360,9.0,24.0,90,0.00,,,0.00,Wunderground v.1.15,2013-05-29 00:05:00,
2013-05-29 01:15:00,46.7,43.9,29.66,North,360,11.0,24.0,90,0.00,,,0.00,Wunderground v.1.15,2013-05-29 00:15:00,
2013-05-29 01:20:00,46.8,44.0,29.66,North,360,11.0,24.0,90,0.00,,,0.00,Wunderground v.1.15,2013-05-29 00:20:00,
2013-05-29 01:25:00,46.8,44.0,29.66,North,360,11.0,24.0,90,0.00,,,0.00,Wunderground v.1.15,2013-05-29 00:25:00,
2013-05-29 01:35:00,46.9,44.1,29.66,North,360,11.0,11.0,90,0.00,,,0.00,Wunderground v.1.15,2013-05-29 00:35:00,
2013-05-29 01:40:00,46.9,44.1,29.66,North,360,11.0,24.0,90,0.00,,,0.00,Wunderground v.1.15,2013-05-29 00:40:00,
2013-05-29 01:45:00,47.0,44.2,29.66,North,360,12.0,24.0,90,0.00,,,0.00,Wunderground v.1.15,2013-05-29 00:45:00,
2013-05-29 01:55:00,46.8,44.0,29.66,North,360,12.0,24.0,90,0.00,,,0.00,Wunderground v.1.15,2013-05-29 00:55:00,
2013-05-29 02:00:00,46.7,43.9,29.66,North,360,11.0,11.0,90,0.00,,,0.00,Wunderground v.1.15,2013-05-29 01:00:00,
2013-05-29 02:05:00,46.5,43.7,29.66,North,360,12.0,12.0,90,0.00,,,0.00,Wunderground v.1.15,2013-05-29 01:05:00,
2013-05-29 02:15:00,46.4,43.6,29.66,North,360,11.0,11.0,90,0.00,,,0.00,Wunderground v.1.15,2013-05-29 01:15:00,
2013-05-29 02:20:00,46.4,43.6,29.66,North,360,12.0,12.0,90,0.00,,,0.00,Wunderground v.1.15,2013-05-29 01:20:00,
2013-05-29 02:30:00,46.4,43.6,29.66,North,360,11.0,11.0,90,0.00,,,0.00,Wunderground v.1.15,2013-05-29 01:30:00,
2013-05-29 02:35:00,46.6,44.1,29.66,North,360,12.0,12.0,91,0.00,,,0.00,Wunderground v.1.15,2013-05-29 01:35:00,
2013-05-29 02:40:00,46.7,44.2,29.66,North,360,13.0,13.0,91,0.00,,,0.00,Wunderground v.1.15,2013-05-29 01:40:00,
2013-05-29 02:50:00,46.9,44.4,29.66,North,360,11.0,11.0,91,0.00,,,0.00,Wunderground v.1.15,2013-05-29 01:50:00,
2013-05-29 02:55:00,46.9,44.4,29.66,North,360,10.0,11.0,91,0.00,,,0.00,Wunderground v.1.15,2013-05-29 01:55:00,
2013-05-29 03:00:00,47.0,44.2,29.66,North,360,10.0,16.0,90,0.00,,,0.00,Wunderground v.1.15,2013-05-29 02:00:00,
2013-05-29 03:05:00,47.1,44.3,29.66,North,360,11.0,24.0,90,0.00,,,0.00,Wunderground v.1.15,2013-05-29 02:05:00,
2013-05-29 03:15:00,47.2,44.4,29.66,North,360,11.0,24.0,90,0.00,,,0.00,Wunderground v.1.15,2013-05-29 02:15:00,
2013-05-29 03:20:00,47.2,44.4,29.66,North,360,12.0,12.0,90,0.00,,,0.00,Wunderground v.1.15,2013-05-29 02:20:00,
2013-05-29 03:25:00,47.2,44.4,29.66,North,360,11.0,24.0,90,0.00,,,0.00,Wunderground v.1.15,2013-05-29 02:25:00,
2013-05-29 03:30:00,47.2,44.4,29.66,North,360,12.0,12.0,90,0.00,,,0.00,Wunderground v.1.15,2013-05-29 02:30:00,
2013-05-29 03:35:00,47.3,44.5,29.66,North,360,10.0,24.0,90,0.00,,,0.00,Wunderground v.1.15,2013-05-29 02:35:00,
2013-05-29 03:45:00,47.3,44.5,29.66,North,360,9.0,24.0,90,0.00,,,0.00,Wunderground v.1.15,2013-05-29 02:45:00,
2013-05-29 03:50:00,47.4,44.6,29.66,North,360,10.0,10.0,90,0.00,,,0.00,Wunderground v.1.15,2013-05-29 02:50:00,
2013-05-29 03:55:00,47.3,44.5,29.66,North,360,11.0,11.0,90,0.00,,,0.00,Wunderground v.1.15,2013-05-29 02:55:00,
2013-05-29 04:05:00,47.3,44.5,29.65,North,360,11.0,17.0,90,0.00,,,0.00,Wunderground v.1.15,2013-05-29 03:05:00,
2013-05-29 04:15:00,47.3,44.5,29.65,North,360,11.0,14.0,90,0.00,,,0.00,Wunderground v.1.15,2013-05-29 03:15:00,
2013-05-29 04:20:00,47.3,44.5,29.66,North,360,11.0,11.0,90,0.00,,,0.00,Wunderground v.1.15,2013-05-29 03:20:00,
2013-05-29 04:25:00,47.2,44.4,29.66,North,360,13.0,18.0,90,0.00,,,0.00,Wunderground v.1.15,2013-05-29 03:25:00,
2013-05-29 04:30:00,47.2,44.4,29.66,North,360,12.0,12.0,90,0.00,,,0.00,Wunderground v.1.15,2013-05-29 03:30:00,
2013-05-29 04:40:00,47.2,44.4,29.66,North,360,12.0,16.0,90,0.00,,,0.00,Wunderground v.1.15,2013-05-29 03:40:00,
2013-05-29 04:45:00,47.2,44.4,29.66,North,360,14.0,16.0,90,0.00,,,0.00,Wunderground v.1.15,2013-05-29 03:45:00,
2013-05-29 04:50:00,47.2,44.4,29.66,North,360,13.0,15.0,90,0.00,,,0.00,Wunderground v.1.15,2013-05-29 03:50:00,
2013-05-29 05:00:00,47.2,44.4,29.66,North,360,13.0,20.0,90,0.00,,,0.00,Wunderground v.1.15,2013-05-29 04:00:00,
2013-05-29 05:05:00,47.2,44.4,29.66,North,360,13.0,26.0,90,0.00,,,0.00,Wunderground v.1.15,2013-05-29 04:05:00,
2013-05-29 05:15:00,47.4,44.6,29.66,North,360,12.0,26.0,90,0.00,,,0.00,Wunderground v.1.15,2013-05-29 04:15:00,
2013-05-29 05:20:00,47.4,44.6,29.67,North,360,10.0,10.0,90,0.00,,,0.00,Wunderground v.1.15,2013-05-29 04:20:00,
2013-05-29 05:25:00,47.5,44.7,29.67,North,360,10.0,26.0,90,0.00,,,0.00,Wunderground v.1.15,2013-05-29 04:25:00,
2013-05-29 05:30:00,47.6,44.8,29.67,North,360,10.0,26.0,90,0.00,,,0.00,Wunderground v.1.15,2013-05-29 04:30:00,
2013-05-29 05:35:00,47.5,44.7,29.67,North,360,11.0,26.0,90,0.00,,,0.00,Wunderground v.1.15,2013-05-29 04:35:00,
2013-05-29 05:40:00,47.6,44.8,29.67,North,360,11.0,26.0,90,0.00,,,0.00,Wunderground v.1.15,2013-05-29 04:40:00,
2013-05-29 05:45:00,47.6,44.8,29.67,North,360,11.0,26.0,90,0.00,,,0.00,Wunderground v.1.15,2013-05-29 04:45:00,
2013-05-29 05:55:00,47.6,44.8,29.67,North,360,10.0,15.0,90,0.00,,,0.00,Wunderground v.1.15,2013-05-29 04:55:00,
2013-05-29 06:00:00,47.6,44.8,29.67,North,360,11.0,11.0,90,0.00,,,0.00,Wunderground v.1.15,2013-05-29 05:00:00,
2013-05-29 06:05:00,47.7,44.9,29.67,North,360,12.0,12.0,90,0.00,,,0.00,Wunderground v.1.15,2013-05-29 05:05:00,
2013-05-29 06:15:00,47.8,45.0,29.67,North,360,13.0,15.0,90,0.00,,,0.00,Wunderground v.1.15,2013-05-29 05:15:00,
2013-05-29 06:25:00,47.8,45.0,29.67,North,360,14.0,14.0,90,0.00,,,0.00,Wunderground v.1.15,2013-05-29 05:25:00,
2013-05-29 06:30:00,47.8,45.0,29.67,North,360,14.0,14.0,90,0.00,,,0.00,Wunderground v.1.15,2013-05-29 05:30:00,
2013-05-29 06:35:00,47.9,45.1,29.68,North,360,13.0,14.0,90,0.00,,,0.00,Wunderground v.1.15,2013-05-29 05:35:00,
2013-05-29 06:40:00,47.9,45.1,29.68,North,360,13.0,13.0,90,0.00,,,0.00,Wunderground v.1.15,2013-05-29 05:40:00,
2013-05-29 06:50:00,48.0,45.2,29.69,North,360,12.0,12.0,90,0.00,,,0.00,Wunderground v.1.15,2013-05-29 05:50:00,
2013-05-29 06:55:00,48.0,45.2,29.69,North,360,11.0,15.0,90,0.00,,,0.00,Wunderground v.1.15,2013-05-29 05:55:00,
2013-05-29 07:05:00,48.0,45.2,29.70,North,360,11.0,13.0,90,0.00,,,0.00,Wunderground v.1.15,2013-05-29 06:05:00,
2013-05-29 07:15:00,48.1,45.3,29.70,North,360,9.0,25.0,90,0.00,,,0.00,Wunderground v.1.15,2013-05-29 06:15:00,
2013-05-29 07:20:00,48.1,45.3,29.70,North,360,11.0,25.0,90,0.00,,,0.00,Wunderground v.1.15,2013-05-29 06:20:00,
2013-05-29 07:25:00,48.2,45.4,29.70,North,360,11.0,25.0,90,0.00,,,0.00,Wunderground v.1.15,2013-05-29 06:25:00,
2013-05-29 07:30:00,48.4,45.9,29.70,North,360,10.0,10.0,91,0.00,,,0.00,Wunderground v.1.15,2013-05-29 06:30:00,
2013-05-29 07:40:00,48.6,45.8,29.70,North,360,10.0,25.0,90,0.00,,,0.00,Wunderground v.1.15,2013-05-29 06:40:00,
2013-05-29 07:45:00,48.6,45.8,29.70,North,360,11.0,25.0,90,0.00,,,0.00,Wunderground v.1.15,2013-05-29 06:45:00,
2013-05-29 07:50:00,48.5,45.7,29.71,North,360,9.0,9.0,90,0.00,,,0.00,Wunderground v.1.15,2013-05-29 06:50:00,
2013-05-29 07:55:00,48.6,45.8,29.71,North,360,9.0,25.0,90,0.00,,,0.00,Wunderground v.1.15,2013-05-29 06:55:00,
2013-05-29 08:05:00,48.6,45.8,29.72,North,360,10.0,25.0,90,0.00,,,0.00,Wunderground v.1.15,2013-05-29 07:05:00,
2013-05-29 08:15:00,49.6,46.8,29.72,North,360,10.0,12.0,90,0.00,,,0.00,Wunderground v.1.15,2013-05-29 07:15:00,
2013-05-29 08:20:00,49.5,46.4,29.73,North,360,11.0,11.0,89,0.00,,,0.00,Wunderground v.1.15,2013-05-29 07:20:00,
2013-05-29 08:25:00,49.5,46.4,29.73,North,360,12.0,12.0,89,0.00,,,0.00,Wunderground v.1.15,2013-05-29 07:25:00,
2013-05-29 08:35:00,49.6,46.2,29.73,North,360,10.0,11.0,88,0.00,,,0.00,Wunderground v.1.15,2013-05-29 07:35:00,
2013-05-29 08:40:00,49.5,46.1,29.73,North,360,10.0,12.0,88,0.00,,,0.00,Wunderground v.1.15,2013-05-29 07:40:00,
2013-05-29 08:50:00,49.4,46.0,29.74,North,360,9.0,9.0,88,0.00,,,0.00,Wunderground v.1.15,2013-05-29 07:50:00,
2013-05-29 08:55:00,49.4,46.0,29.74,North,360,8.0,9.0,88,0.00,,,0.00,Wunderground v.1.15,2013-05-29 07:55:00,
2013-05-29 09:00:00,49.6,46.2,29.74,North,360,8.0,8.0,88,0.00,,,0.00,Wunderground v.1.15,2013-05-29 08:00:00,
2013-05-29 09:05:00,49.8,46.4,29.75,North,360,8.0,11.0,88,0.00,,,0.00,Wunderground v.1.15,2013-05-29 08:05:00,
2013-05-29 09:15:00,50.4,47.0,29.75,North,360,9.0,11.0,88,0.00,,,0.00,Wunderground v.1.15,2013-05-29 08:15:00,
2013-05-29 09:25:00,50.6,46.9,29.75,North,360,11.0,25.0,87,0.00,,,0.00,Wunderground v.1.15,2013-05-29 08:25:00,
2013-05-29 09:30:00,50.7,47.0,29.75,North,360,11.0,25.0,87,0.00,,,0.00,Wunderground v.1.15,2013-05-29 08:30:00,
2013-05-29 09:35:00,50.8,47.1,29.75,North,360,10.0,25.0,87,0.00,,,0.00,Wunderground v.1.15,2013-05-29 08:35:00,
2013-05-29 09:40:00,50.9,46.9,29.75,North,360,10.0,10.0,86,0.00,,,0.00,Wunderground v.1.15,2013-05-29 08:40:00,
2013-05-29 09:50:00,51.9,47.8,29.75,North,360,10.0,10.0,86,0.00,,,0.00,Wunderground v.1.15,2013-05-29 08:50:00,
2013-05-29 09:55:00,53.0,48.6,29.75,North,360,9.0,25.0,85,0.00,,,0.00,Wunderground v.1.15,2013-05-29 08:55:00,
2013-05-29 10:00:00,53.2,48.5,29.75,North,360,10.0,25.0,84,0.00,,,0.00,Wunderground v.1.15,2013-05-29 09:00:00,
2013-05-29 10:05:00,53.4,48.4,29.76,North,360,12.0,25.0,83,0.00,,,0.00,Wunderground v.1.15,2013-05-29 09:05:00,
2013-05-29 10:15:00,53.6,48.6,29.76,North,360,12.0,12.0,83,0.00,,,0.00,Wunderground v.1.15,2013-05-29 09:15:00,
2013-05-29 10:20:00,54.3,48.9,29.76,North,360,11.0,13.0,82,0.00,,,0.00,Wunderground v.1.15,2013-05-29 09:20:00,
2013-05-29 10:25:00,54.8,49.4,29.76,North,360,10.0,13.0,82,0.00,,,0.00,Wunderground v.1.15,2013-05-29 09:25:00,
2013-05-29 10:30:00,55.3,49.6,29.76,North,360,10.0,10.0,81,0.00,,,0.00,Wunderground v.1.15,2013-05-29 09:30:00,
2013-05-29 10:40:00,55.2,48.8,29.77,North,360,11.0,13.0,79,0.00,,,0.00,Wunderground v.1.15,2013-05-29 09:40:00,
2013-05-29 10:45:00,55.3,48.6,29.77,North,360,13.0,13.0,78,0.00,,,0.00,Wunderground v.1.15,2013-05-29 09:45:00,
2013-05-29 10:50:00,55.8,49.0,29.78,North,360,12.0,18.0,78,0.00,,,0.00,Wunderground v.1.15,2013-05-29 09:50:00,
2013-05-29 10:55:00,56.1,49.0,29.78,North,360,11.0,18.0,77,0.00,,,0.00,Wunderground v.1.15,2013-05-29 09:55:00,
2013-05-29 11:05:00,56.7,49.2,29.78,North,360,11.0,15.0,76,0.00,,,0.00,Wunderground v.1.15,2013-05-29 10:05:00,
2013-05-29 11:15:00,56.8,49.0,29.78,North,360,12.0,12.0,75,0.00,,,0.00,Wunderground v.1.15,2013-05-29 10:15:00,
2013-05-29 11:20:00,57.0,48.8,29.78,North,360,11.0,24.0,74,0.00,,,0.00,Wunderground v.1.15,2013-05-29 10:20:00,
2013-05-29 11:30:00,57.2,49.0,29.78,North,360,13.0,24.0,74,0.00,,,0.00,Wunderground v.1.15,2013-05-29 10:30:00,
2013-05-29 11:35:00,57.5,49.3,29.78,North,360,13.0,24.0,74,0.00,,,0.00,Wunderground v.1.15,2013-05-29 10:35:00,
2013-05-29 11:40:00,57.7,48.7,29.78,North,351,13.0,24.0,72,0.00,,,0.00,Wunderground v.1.15,2013-05-29 10:40:00,
2013-05-29 11:45:00,58.0,49.8,29.78,North,360,14.0,24.0,74,0.00,,,0.00,Wunderground v.1.15,2013-05-29 10:45:00,
2013-05-29 11:55:00,58.3,48.9,29.79,North,360,15.0,24.0,71,0.00,,,0.00,Wunderground v.1.15,2013-05-29 10:55:00,
2013-05-29 12:00:00,58.4,48.7,29.79,North,360,16.0,24.0,70,0.00,,,0.00,Wunderground v.1.15,2013-05-29 11:00:00,
2013-05-29 12:05:00,58.7,48.9,29.80,North,360,15.0,24.0,70,0.00,,,0.00,Wunderground v.1.15,2013-05-29 11:05:00,
2013-05-29 12:15:00,59.5,49.3,29.80,North,360,14.0,15.0,69,0.00,,,0.00,Wunderground v.1.15,2013-05-29 11:15:00,
2013-05-29 12:20:00,59.9,49.3,29.80,North,360,14.0,18.0,68,0.00,,,0.00,Wunderground v.1.15,2013-05-29 11:20:00,
2013-05-29 12:30:00,60.2,49.6,29.80,North,360,13.0,15.0,68,0.00,,,0.00,Wunderground v.1.15,2013-05-29 11:30:00,
2013-05-29 12:35:00,60.7,49.7,29.81,North,360,13.0,15.0,67,0.00,,,0.00,Wunderground v.1.15,2013-05-29 11:35:00,
2013-05-29 12:40:00,61.2,50.2,29.81,North,360,13.0,14.0,67,0.00,,,0.00,Wunderground v.1.15,2013-05-29 11:40:00,
2013-05-29 12:50:00,61.7,49.4,29.81,North,360,12.0,12.0,64,0.00,,,0.00,Wunderground v.1.15,2013-05-29 11:50:00,
2013-05-29 12:55:00,61.7,49.0,29.81,North,360,13.0,13.0,63,0.00,,,0.00,Wunderground v.1.15,2013-05-29 11:55:00,
2013-05-29 13:00:00,62.1,50.2,29.81,North,360,13.0,13.0,65,0.00,,,0.00,Wunderground v.1.15,2013-05-29 12:00:00,
2013-05-29 13:05:00,62.6,50.7,29.82,North,360,12.0,25.0,65,0.00,,,0.00,Wunderground v.1.15,2013-05-29 12:05:00,
2013-05-29 13:15:00,63.6,50.8,29.82,North,360,12.0,25.0,63,0.00,,,0.00,Wunderground v.1.15,2013-05-29 12:15:00,
2013-05-29 13:20:00,63.9,50.6,29.83,North,360,12.0,25.0,62,0.00,,,0.00,Wunderground v.1.15,2013-05-29 12:20:00,
2013-05-29 13:25:00,64.0,50.7,29.83,North,360,12.0,25.0,62,0.00,,,0.00,Wunderground v.1.15,2013-05-29 12:25:00,
2013-05-29 13:30:00,64.1,50.4,29.83,North,360,12.0,12.0,61,0.00,,,0.00,Wunderground v.1.15,2013-05-29 12:30:00,
2013-05-29 13:35:00,64.6,50.4,29.83,North,360,12.0,13.0,60,0.00,,,0.00,Wunderground v.1.15,2013-05-29 12:35:00,
2013-05-29 13:45:00,65.4,50.2,29.83,North,360,11.0,16.0,58,0.00,,,0.00,Wunderground v.1.15,2013-05-29 12:45:00,
2013-05-29 13:50:00,65.4,49.8,29.84,North,360,11.0,11.0,57,0.00,,,0.00,Wunderground v.1.15,2013-05-29 12:50:00,
2013-05-29 13:55:00,65.9,50.7,29.84,North,360,11.0,13.0,58,0.00,,,0.00,Wunderground v.1.15,2013-05-29 12:55:00,
2013-05-29 14:00:00,65.7,50.5,29.84,North,360,10.0,25.0,58,0.00,,,0.00,Wunderground v.1.15,2013-05-29 13:00:00,
2013-05-29 14:05:00,65.7,50.5,29.84,North,360,12.0,25.0,58,0.00,,,0.00,Wunderground v.1.15,2013-05-29 13:05:00,
2013-05-29 14:15:00,65.9,49.8,29.84,North,360,12.0,20.0,56,0.00,,,0.00,Wunderground v.1.15,2013-05-29 13:15:00,
2013-05-29 14:20:00,66.0,50.3,29.84,North,360,12.0,14.0,57,0.00,,,0.00,Wunderground v.1.15,2013-05-29 13:20:00,
2013-05-29 14:25:00,66.4,51.2,29.84,North,360,11.0,14.0,58,0.00,,,0.00,Wunderground v.1.15,2013-05-29 13:25:00,
2013-05-29 14:30:00,66.1,49.9,29.84,North,360,12.0,12.0,56,0.00,,,0.00,Wunderground v.1.15,2013-05-29 13:30:00,
2013-05-29 14:40:00,66.5,50.3,29.84,North,360,11.0,11.0,56,0.00,,,0.00,Wunderground v.1.15,2013-05-29 13:40:00,
2013-05-29 14:45:00,66.4,50.7,29.84,North,360,12.0,12.0,57,0.00,,,0.00,Wunderground v.1.15,2013-05-29 13:45:00,
2013-05-29 14:50:00,66.7,50.5,29.86,North,360,11.0,12.0,56,0.00,,,0.00,Wunderground v.1.15,2013-05-29 13:50:00,
2013-05-29 15:00:00,66.5,51.3,29.86,North,360,11.0,11.0,58,0.00,,,0.00,Wunderground v.1.15,2013-05-29 14:00:00,
2013-05-29 15:05:00,66.2,50.5,29.86,North,360,13.0,13.0,57,0.00,,,0.00,Wunderground v.1.15,2013-05-29 14:05:00,
2013-05-29 15:15:00,67.4,50.7,29.86,North,360,12.0,25.0,55,0.00,,,0.00,Wunderground v.1.15,2013-05-29 14:15:00,
2013-05-29 15:20:00,67.8,50.5,29.87,North,360,11.0,11.0,54,0.00,,,0.00,Wunderground v.1.15,2013-05-29 14:20:00,
2013-05-29 15:25:00,67.7,50.9,29.87,North,360,12.0,12.0,55,0.00,,,0.00,Wunderground v.1.15,2013-05-29 14:25:00,
2013-05-29 15:35:00,68.0,50.7,29.87,North,360,10.0,25.0,54,0.00,,,0.00,Wunderground v.1.15,2013-05-29 14:35:00,
2013-05-29 15:40:00,67.2,51.0,29.87,North,360,9.0,9.0,56,0.00,,,0.00,Wunderground v.1.15,2013-05-29 14:40:00,
2013-05-29 15:45:00,66.1,49.9,29.87,North,360,9.0,15.0,56,0.00,,,0.00,Wunderground v.1.15,2013-05-29 14:45:00,
2013-05-29 15:50:00,67.2,50.5,29.87,North,360,10.0,25.0,55,0.00,,,0.00,Wunderground v.1.15,2013-05-29 14:50:00,
2013-05-29 16:00:00,67.6,49.9,29.87,North,360,11.0,11.0,53,0.00,,,0.00,Wunderground v.1.15,2013-05-29 15:00:00,
2013-05-29 16:05:00,68.3,50.5,29.87,North,360,11.0,16.0,53,0.00,,,0.00,Wunderground v.1.15,2013-05-29 15:05:00,
2013-05-29 16:15:00,68.0,50.2,29.87,North,360,12.0,12.0,53,0.00,,,0.00,Wunderground v.1.15,2013-05-29 15:15:00,
2013-05-29 16:20:00,67.8,49.5,29.87,North,360,11.0,11.0,52,0.00,,,0.00,Wunderground v.1.15,2013-05-29 15:20:00,
2013-05-29 16:30:00,68.3,49.5,29.87,North,360,12.0,12.0,51,0.00,,,0.00,Wunderground v.1.15,2013-05-29 15:30:00,
2013-05-29 16:35:00,67.8,50.0,29.87,North,360,10.0,12.0,53,0.00,,,0.00,Wunderground v.1.15,2013-05-29 15:35:00,
2013-05-29 16:40:00,67.9,49.1,29.87,North,360,9.0,10.0,51,0.00,,,0.00,Wunderground v.1.15,2013-05-29 15:40:00,
2013-05-29 16:50:00,67.8,46.8,29.88,North,360,10.0,11.0,47,0.00,,,0.00,Wunderground v.1.15,2013-05-29 15:50:00,
2013-05-29 16:55:00,68.3,46.7,29.88,North,360,10.0,11.0,46,0.00,,,0.00,Wunderground v.1.15,2013-05-29 15:55:00,
2013-05-29 17:00:00,68.4,46.2,29.88,North,360,10.0,14.0,45,0.00,,,0.00,Wunderground v.1.15,2013-05-29 16:00:00,
2013-05-29 17:05:00,68.0,47.0,29.89,North,360,10.0,16.0,47,0.00,,,0.00,Wunderground v.1.15,2013-05-29 16:05:00,
2013-05-29 17:15:00,67.5,47.1,29.89,North,360,11.0,11.0,48,0.00,,,0.00,Wunderground v.1.15,2013-05-29 16:15:00,
2013-05-29 17:25:00,67.5,41.7,29.89,North,360,10.0,24.0,39,0.00,,,0.00,Wunderground v.1.15,2013-05-29 16:25:00,
2013-05-29 17:30:00,67.6,43.7,29.89,North,360,9.0,9.0,42,0.00,,,0.00,Wunderground v.1.15,2013-05-29 16:30:00,
2013-05-29 17:40:00,67.1,44.4,29.89,North,360,11.0,11.0,44,0.00,,,0.00,Wunderground v.1.15,2013-05-29 16:40:00,
2013-05-29 17:45:00,67.3,44.6,29.89,North,360,11.0,24.0,44,0.00,,,0.00,Wunderground v.1.15,2013-05-29 16:45:00,
2013-05-29 17:50:00,67.4,45.9,29.89,North,360,11.0,11.0,46,0.00,,,0.00,Wunderground v.1.15,2013-05-29 16:50:00,
2013-05-29 17:55:00,67.3,45.2,29.89,North,360,9.0,24.0,45,0.00,,,0.00,Wunderground v.1.15,2013-05-29 16:55:00,
2013-05-29 18:05:00,67.0,46.7,29.89,North,360,10.0,24.0,48,0.00,,,0.00,Wunderground v.1.15,2013-05-29 17:05:00,
2013-05-29 18:15:00,66.9,46.6,29.89,North,360,10.0,10.0,48,0.00,,,0.00,Wunderground v.1.15,2013-05-29 17:15:00,
2013-05-29 18:20:00,66.7,46.9,29.90,North,360,10.0,10.0,49,0.00,,,0.00,Wunderground v.1.15,2013-05-29 17:20:00,
2013-05-29 18:25:00,66.7,46.4,29.90,North,351,11.0,11.0,48,0.00,,,0.00,Wunderground v.1.15,2013-05-29 17:25:00,
2013-05-29 18:35:00,66.7,47.5,29.90,North,360,8.0,14.0,50,0.00,,,0.00,Wunderground v.1.15,2013-05-29 17:35:00,
2013-05-29 18:40:00,66.5,47.3,29.90,North,360,9.0,9.0,50,0.00,,,0.00,Wunderground v.1.15,2013-05-29 17:40:00,
2013-05-29 18:45:00,66.4,47.2,29.90,North,360,7.0,9.0,50,0.00,,,0.00,Wunderground v.1.15,2013-05-29 17:45:00,
2013-05-29 18:55:00,66.4,47.2,29.90,North,360,7.0,17.0,50,0.00,,,0.00,Wunderground v.1.15,2013-05-29 17:55:00,
2013-05-29 19:00:00,66.2,47.0,29.90,North,360,7.0,7.0,50,0.00,,,0.00,Wunderground v.1.15,2013-05-29 18:00:00,
2013-05-29 19:05:00,65.9,46.7,29.90,North,360,8.0,8.0,50,0.00,,,0.00,Wunderground v.1.15,2013-05-29 18:05:00,
2013-05-29 19:15:00,65.5,47.4,29.90,North,360,7.0,24.0,52,0.00,,,0.00,Wunderground v.1.15,2013-05-29 18:15:00,
2013-05-29 19:20:00,65.2,46.6,29.91,North,360,8.0,8.0,51,0.00,,,0.00,Wunderground v.1.15,2013-05-29 18:20:00,
2013-05-29 19:25:00,65.0,46.4,29.91,North,360,9.0,11.0,51,0.00,,,0.00,Wunderground v.1.15,2013-05-29 18:25:00,
2013-05-29 19:30:00,64.7,47.2,29.91,North,360,8.0,8.0,53,0.00,,,0.00,Wunderground v.1.15,2013-05-29 18:30:00,
2013-05-29 19:40:00,64.1,46.6,29.92,North,360,8.0,8.0,53,0.00,,,0.00,Wunderground v.1.15,2013-05-29 18:40:00,
2013-05-29 19:45:00,63.6,47.1,29.92,North,360,7.0,24.0,55,0.00,,,0.00,Wunderground v.1.15,2013-05-29 18:45:00,
2013-05-29 19:50:00,63.3,47.3,29.92,North,360,6.0,24.0,56,0.00,,,0.00,Wunderground v.1.15,2013-05-29 18:50:00,
2013-05-29 20:00:00,63.1,47.6,29.92,North,360,6.0,6.0,57,0.00,,,0.00,Wunderground v.1.15,2013-05-29 19:00:00,
2013-05-29 20:05:00,63.0,48.4,29.92,North,360,7.0,14.0,59,0.00,,,0.00,Wunderground v.1.15,2013-05-29 19:05:00,
2013-05-29 20:15:00,63.1,48.5,29.92,North,360,10.0,10.0,59,0.00,,,0.00,Wunderground v.1.15,2013-05-29 19:15:00,
2013-05-29 20:20:00,63.0,48.4,29.93,North,360,10.0,10.0,59,0.00,,,0.00,Wunderground v.1.15,2013-05-29 19:20:00,
2013-05-29 20:25:00,62.7,47.7,29.93,North,360,11.0,11.0,58,0.00,,,0.00,Wunderground v.1.15,2013-05-29 19:25:00,
2013-05-29 20:35:00,62.4,47.9,29.93,North,360,8.0,13.0,59,0.00,,,0.00,Wunderground v.1.15,2013-05-29 19:35:00,
2013-05-29 20:40:00,62.1,48.0,29.93,North,360,8.0,8.0,60,0.00,,,0.00,Wunderground v.1.15,2013-05-29 19:40:00,
2013-05-29 20:50:00,61.6,48.0,29.94,North,360,7.0,7.0,61,0.00,,,0.00,Wunderground v.1.15,2013-05-29 19:50:00,
2013-05-29 20:55:00,61.3,49.4,29.94,North,360,7.0,11.0,65,0.00,,,0.00,Wunderground v.1.15,2013-05-29 19:55:00,
2013-05-29 21:00:00,61.0,50.0,29.94,North,360,7.0,15.0,67,0.00,,,0.00,Wunderground v.1.15,2013-05-29 20:00:00,
2013-05-29 21:05:00,60.7,50.1,29.95,North,360,6.0,21.0,68,0.00,,,0.00,Wunderground v.1.15,2013-05-29 20:05:00,
2013-05-29 21:15:00,60.0,50.2,29.95,North,360,6.0,21.0,70,0.00,,,0.00,Wunderground v.1.15,2013-05-29 20:15:00,
2013-05-29 21:25:00,59.4,49.6,29.95,North,360,9.0,11.0,70,0.00,,,0.00,Wunderground v.1.15,2013-05-29 20:25:00,
2013-05-29 21:30:00,59.1,49.3,29.95,North,360,11.0,21.0,70,0.00,,,0.00,Wunderground v.1.15,2013-05-29 20:30:00,
2013-05-29 21:35:00,58.8,49.0,29.96,North,360,11.0,21.0,70,0.00,,,0.00,Wunderground v.1.15,2013-05-29 20:35:00,
2013-05-29 21:45:00,58.3,48.6,29.96,North,360,11.0,14.0,70,0.00,,,0.00,Wunderground v.1.15,2013-05-29 20:45:00,
2013-05-29 21:50:00,58.0,48.6,29.96,North,360,11.0,21.0,71,0.00,,,0.00,Wunderground v.1.15,2013-05-29 20:50:00,
2013-05-29 21:55:00,57.7,48.4,29.96,North,360,12.0,21.0,71,0.00,,,0.00,Wunderground v.1.15,2013-05-29 20:55:00,
2013-05-29 22:05:00,57.2,48.3,29.97,North,360,9.0,11.0,72,0.00,,,0.00,Wunderground v.1.15,2013-05-29 21:05:00,
2013-05-29 22:15:00,56.6,47.7,29.97,North,360,7.0,14.0,72,0.00,,,0.00,Wunderground v.1.15,2013-05-29 21:15:00,
2013-05-29 22:20:00,56.4,47.9,29.97,North,360,7.0,8.0,73,0.00,,,0.00,Wunderground v.1.15,2013-05-29 21:20:00,
2013-05-29 22:25:00,56.3,47.8,29.97,North,360,8.0,8.0,73,0.00,,,0.00,Wunderground v.1.15,2013-05-29 21:25:00,
2013-05-29 22:30:00,56.1,47.6,29.97,North,360,8.0,8.0,73,0.00,,,0.00,Wunderground v.1.15,2013-05-29 21:30:00,
2013-05-29 22:40:00,55.6,47.1,29.97,North,360,8.0,12.0,73,0.00,,,0.00,Wunderground v.1.15,2013-05-29 21:40:00,
2013-05-29 22:45:00,55.4,47.2,29.97,North,360,9.0,12.0,74,0.00,,,0.00,Wunderground v.1.15,2013-05-29 21:45:00,
2013-05-29 22:50:00,55.3,47.2,29.98,North,360,9.0,9.0,74,0.00,,,0.00,Wunderground v.1.15,2013-05-29 21:50:00,
2013-05-29 23:00:00,54.8,46.7,29.98,North,360,9.0,9.0,74,0.00,,,0.00,Wunderground v.1.15,2013-05-29 22:00:00,
2013-05-29 23:05:00,54.6,46.8,29.98,North,360,8.0,22.0,75,0.00,,,0.00,Wunderground v.1.15,2013-05-29 22:05:00,
2013-05-29 23:15:00,54.1,46.3,29.98,North,360,9.0,22.0,75,0.00,,,0.00,Wunderground v.1.15,2013-05-29 22:15:00,
2013-05-29 23:20:00,53.9,46.2,29.98,North,360,9.0,9.0,75,0.00,,,0.00,Wunderground v.1.15,2013-05-29 22:20:00,
2013-05-29 23:25:00,53.5,46.1,29.98,North,360,8.0,22.0,76,0.00,,,0.00,Wunderground v.1.15,2013-05-29 22:25:00,
2013-05-29 23:35:00,52.9,45.9,29.98,North,360,8.0,22.0,77,0.00,,,0.00,Wunderground v.1.15,2013-05-29 22:35:00,
2013-05-29 23:40:00,52.7,45.7,29.98,North,360,9.0,22.0,77,0.00,,,0.00,Wunderground v.1.15,2013-05-29 22:40:00,
2013-05-29 23:45:00,52.6,45.6,29.98,North,360,9.0,22.0,77,0.00,,,0.00,Wunderground v.1.15,2013-05-29 22:45:00,
2013-05-29 23:50:00,52.5,45.5,29.99,North,360,9.0,9.0,77,0.00,,,0.00,Wunderground v.1.15,2013-05-29 22:50:00,